DECAYED
Showing default

KSF3-C, 55018 (Decayed)

Orbit data source: Space-Track

KSF3-C, 55018 was a payload satellite owned by Kleos Space (LU) in LEO that was launched on Tue, 03 Jan 2023 UTC via an FALCON 9 launch vehicle from the Air Force Eastern Test Range (AFETR). Payload-class satellites include a variety of spacecraft equipped with specific instruments for various scientific and technological missions. These include communications satellites like Starlink; space stations such as the ISS; scientific satellites like the Hubble; Earth observation satellites from companies like Planet Labs, Umbra, and HawkEye 360; GPS; miniature CubeSats for education and research; and military/defense satellites.

Not visible in the next 10 days
Identifier
55018, 2023-001K
Orbit
Decayed
Country
Flag of UnknownUnknown / LUXE
Related business
Manufacturer
ISIS BV
Mission
Decayed Commercial Sigint
Bus & Motor
CUBESAT 6U, Unknown motor
Mass
~10 kg wet, ~10 kg dry
Launch date (UTC)
2023-01-03 (3 years ago)
Launch vehicle
FALCON 9
Launch site
Air Force Eastern Test Range (AFETR)
Object type
Payload
Rocket body
Debris
Shape & HBR
Box, 0.1 m
Radar Cross Section
0.080 m², Medium (>0.1 m² and < 1m²)

Expand to show TLE details & history
Last TLE update: 8 months ago

TLE from 8 months ago
0 KSF3-C
1 55018U 23001K   25032.64654633  .07390767  24480-5  15408-2 0  9996
2 55018  97.3532 108.0701 0008411 286.8617  73.1755 16.30974139116413
Epoch: 2025-02-01T15:31Z
TLE epoch observation values (Epoch: 2025-02-01T15:31:01.602Z)
Latitude
-0.00006°
Longitude
103.22153°
Altitude
191.569 km
Speed
7.792 km/s
True Right ascension
07h 12m 16s
True Declination
0° 00' 00"
Sunlit
Object was in full shadow at epoch
Visualization orbit readout
Latitude
Unknown
Longitude
Unknown
Altitude
Unknown
Speed
Unknown
Apparent Right ascension
Unknown
Apparent Declination
Unknown
Sunlit
N/A
Visualization observer readout
Local Sidereal Time
23:24:07
Azimuth
Unknown
Elevation
Unknown
Doppler factor
Unknown
Orbital elements
Apogee altitude
192.262 km
Perigee altitude
181.219 km
Semi-major axis
6,564.877 km
Eccentricity
0.00084
Inclination
97.3532°
RAAN
108.0701°
Arg. of periapsis
286.8617°
True anomaly
73.26779°
Mean anomaly
73.1755°
Eccentric anomaly
73.22164°
Mean motion
4.0804 °/min
Orbital period
88.23 mins
BSTAR
0.0015408
Loading maneuver chart data...
Computing Atmospheric mass density...
Loading historical data...
Loading historical data...
Loading historical data...
Loading historical data...
Loading historical data...
Loading historical data...
Loading historical data...

Documentation

Showing up to 5 results
|